Regional Weather Roundup
Issued by NWS

Home | Current Version | Previous Version | Graphics & Text | Print | Product List | Glossary On
Versions: 1 2 3 4 5 6 7 8 9 10 11 12 13 14 15 16 17 18 19 20 21 22 23 24 25 26 27 28 29 30 31 32 33 34 35 36 37 38 39 40 41 42 43 44 45 46 47 48 49 50
000
ASUS43 KBIS 211202
RWRND

NORTH DAKOTA REGIONAL WEATHER ROUNDUP
NATIONAL WEATHER SERVICE BISMARCK ND
700 AM CDT FRI JUL 21 2017

NOTE: "FAIR" INDICATES FEW OR NO CLOUDS BELOW 12,000 FEET WITH NO
SIGNIFICANT WEATHER AND/OR OBSTRUCTIONS TO VISIBILITY.


NDZ001>003-009>011-017-211300-
NORTHWEST NORTH DAKOTA

CITY           SKY/WX    TMP DP  RH WIND       PRES   REMARKS
WILLISTON      CLOUDY    66  59  78 NE10      29.81R
6HR MIN TEMP:  66; 6HR MAX TEMP:  75;

MINOT          MOCLDY    64  60  87 NW6       29.81S
MINOT AFB      PTCLDY    63  60  89 CALM      29.80S
$$

NDZ018>021-031>035-040>046-211300-
SOUTHWEST NORTH DAKOTA

CITY           SKY/WX    TMP DP  RH WIND       PRES   REMARKS
BISMARCK       MOCLDY    67  64  90 NE5       29.79F
6HR MIN TEMP:  66; 6HR MAX TEMP:  76;

DICKINSON      PTCLDY    68  62  81 W9        29.82R
GARRISON         N/A     60  59  96 CALM      29.81R
6HR MIN TEMP:  60; 6HR MAX TEMP:  71;

HETTINGER ARPT MOCLDY    65  61  87 SW6       29.86R
$$

NDZ004>008-012>016-024-026-027-054-211300-
NORTHEAST NORTH DAKOTA

CITY           SKY/WX    TMP DP  RH WIND       PRES   REMARKS
GRAND FORKS    CLOUDY    71  68  90 E8        29.79F
GRND FRKS AFB  CLOUDY    68  67  95 E6        29.79F
DEVILS LAKE    CLOUDY    68  64  87 E8        29.81F
$$

NDZ022-023-025-028>030-036>039-047>053-211300-
SOUTHEAST NORTH DAKOTA

CITY           SKY/WX    TMP DP  RH WIND       PRES   REMARKS
FARGO          PTCLDY    73  70  90 E7        29.78F
6HR MIN TEMP:  73; 6HR MAX TEMP:  78;

JAMESTOWN      PTCLDY    68  66  93 E6        29.78S
$$





USA.gov is the U.S. government's official web portal to all federal, state and local government web resources and services.